Regional Weather Roundup
Issued by NWS

Home | Current Version | Previous Version | Graphics & Text | Print | Product List | Glossary On
Versions: 1 2 3 4 5 6 7 8 9 10 11 12 13 14 15 16 17 18 19 20 21 22 23 24 25 26 27 28 29 30 31 32 33 34 35 36 37 38 39 40 41 42 43 44 45 46 47 48 49 50
000
ASUS45 KSLC 040410
RWRUT

UTAH REGIONAL WEATHER ROUNDUP
NATIONAL WEATHER SERVICE SALT LAKE CITY UT
900 PM MST TUE MAR 03 2015

UTZ001>011-023>025-040500-

NORTHERN UTAH

CITY           SKY/WX    TMP DP  RH WIND       PRES   REMARKS
HILL AFB       CLOUDY    31  20  64 W2        29.97R
LOGAN          MOCLDY    26  18  71 E5        29.97R WCI  20
OGDEN          CLOUDY    31  21  66 CALM      29.97R
PROVO AIRPORT  PTCLDY    30  21  69 CALM      29.98R
SALT LAKE CITY MOCLDY    32  27  81 SE5       29.99R WCI  27
VERNAL         CLOUDY    31  18  58 NE9       29.82R WCI  23
WENDOVER       CLEAR     30  14  51 W7        30.00R WCI  23
HEBER CITY     MOCLDY    25  14  63 NE5       29.93R WCI  19
WEST JORDAN    CLOUDY    30  28  93 NW9       30.00R WCI  22

$$

UTZ012>022-026-027-040500-

SOUTHERN/CENTRAL UTAH

CITY           SKY/WX    TMP DP  RH WIND       PRES   REMARKS
BLANDING       PTCLDY    31  28  90 CALM      29.91S
BRYCE CANYON   MOCLDY    16  14  92 CALM      29.88R
CEDAR CITY     MOCLDY    27  20  75 N10       29.92R WCI  17
DELTA          CLEAR     28  23  84 N7        29.98S WCI  20
HANKSVILLE     PTCLDY    36  21  55 NW7       29.91R WCI  30
MILFORD        CLEAR     24  20  84 CALM      29.97R
MOAB/CYNLANDS  CLEAR     32  31  96 CALM      29.85R
PRICE          CLEAR     26  13  57 NW8       29.85S WCI  18
ST GEORGE      PTCLDY    41  34  75 SE6       29.96R
KANAB          CLOUDY    34  34 100 CALM      29.95R

$$

REGIONAL REPORTS     COLORADO/ARIZONA

CITY           SKY/WX    TMP DP  RH WIND       PRES   REMARKS
CRAIG, CO        N/A     20  16  84 CALM      29.84R
GRAND JUNCTION CLOUDY    30  30 100 SW3       29.84R
RIFLE          CLOUDY    31  25  78 W6        29.81R WCI  25
MONTROSE       FLURRIES  33  28  81 NW18      29.83R WCI  22
CORTEZ         PTCLDY    29  28  96 N5        29.85S WCI  24
PAGE, AZ       MOCLDY    41  27  57 W5        29.87S
GRAND CANYON   LGT SNOW  22  20  92 MISG      29.90R FOG
KINGMAN        CLOUDY    41  37  86 S5        29.92R
FLAGSTAFF      NOT AVBL

$$

REGIONAL REPORTS    NEVADA/IDAHO/WYOMING

CITY           SKY/WX    TMP DP  RH WIND       PRES   REMARKS
LAS VEGAS, NV  MOCLDY    53  36  52 E9        29.89R
ELY            PTCLDY    18  11  74 NW12      29.99R WCI   5
ELKO           CLEAR     24  16  71 W5        30.03R WCI  18
POCATELLO, ID  MOCLDY    24  14  65 S3        29.95R
BURLEY         MIX PCPN  30  13  49 W17G25    29.95R WCI  18
EVANSTON, WY   PTCLDY    11   7  84 W9        29.89R WCI  -2
ROCK SPRINGS   PTCLDY     7   2  80 CALM      29.83R

$$


USA.gov is the U.S. government's official web portal to all federal, state and local government web resources and services.